Abingdon, VA

12:45 PM EDT on August 25, 2016 (GMT -0400)
Virginia Highlands

Weather History for KVJI - March, 2014

Change the Weather History Date:

Wednesday, March 26, 2014

  Actual Average (KTRI) Record (KTRI)
Temperature  
Mean Temperature 32 °F 49 °F  
Max Temperature 41 °F 62 °F 82 °F (1944)
Min Temperature 23 °F 37 °F 11 °F (1940)
Degree Days  
Heating Degree Days 33 16  
Month to date heating degree days 494  
Since 1 July heating degree days 3876  
Cooling Degree Days 0 0  
Month to date cooling degree days 0  
Year to date cooling degree days 0  
Moisture  
Dew Point 11 °F    
Average Humidity 47    
Maximum Humidity 82    
Minimum Humidity 23    
Precipitation  
Precipitation 0.00 in 0.12 in 1.48 in (1965)
Month to date precipitation 2.87  
Year to date precipitation 9.69  
Snow  
Snow 0.00 in 0.10 in - ()
Month to date snowfall 1.3  
Since 1 July snowfall 12.1  
Snow Depth -    
Sea Level Pressure  
Sea Level Pressure 30.19 in    
Wind  
Wind Speed 9 mph (NNW)    
Max Wind Speed 15 mph    
Max Gust Speed 21 mph    
Visibility 10 miles    
Events Snow    
T = Trace of Precipitation, MM = Missing Value Source: NWS Daily Summary

Daily Weather History Graph

Daily Weather History Graph

Search for Another Location

Airport or City:

Trip Planner

Search our weather history database for the weather conditions in past years. The results will help you decide how hot, cold, wet, or windy it might be!

Date:

Astronomy

Mar. 26, 2014 Rise Set
Actual Time 7:22 AM EDT 7:45 PM EDT
Civil Twilight 6:56 AM EDT 8:11 PM EDT
Nautical Twilight 6:26 AM EDT 8:41 PM EDT
Astronomical Twilight 5:55 AM EDT 9:12 PM EDT
Moon 4:23 AM EDT (3/26) 3:28 PM EDT (3/26)
Length of Visible Light 13h 14m
Length of Day
12h 22m
Waning Crescent, 22% of the Moon is Illuminated
Mar 26
Waning Crescent
Mar 30
New
Apr 7
First Quarter
Apr 15
Full
Apr 22
Last Quarter

Hourly Weather History & Observations

Time (EDT) Temp. Windchill Dew Point Humidity Pressure Visibility Wind Dir Wind Speed Gust Speed Precip Events Conditions
12:15 AM 27.7 °F 17.6 °F 17.4 °F 65% 30.06 in 10.0 mi NW 11.5 mph 17.3 mph N/A   Mostly Cloudy
12:35 AM 27.5 °F 18.6 °F 17.8 °F 67% 30.06 in 10.0 mi NNW 9.2 mph 16.1 mph N/A   Mostly Cloudy
12:55 AM 27.5 °F 18.0 °F 16.2 °F 62% 30.07 in 10.0 mi NNW 10.4 mph 16.1 mph N/A Snow Light Snow
1:15 AM 27.9 °F 16.3 °F 13.8 °F 56% 30.07 in 10.0 mi NNW 15.0 mph 20.7 mph N/A   Overcast
1:35 AM 27.7 °F 18.2 °F 13.6 °F 56% 30.07 in 10.0 mi NNW 10.4 mph 19.6 mph N/A   Overcast
1:55 AM 27.5 °F 15.9 °F 12.7 °F 54% 30.08 in 10.0 mi North 15.0 mph 19.6 mph N/A   Overcast
2:15 AM 26.2 °F 15.8 °F 15.8 °F 65% 30.08 in 10.0 mi NNW 11.5 mph 19.6 mph N/A Snow Light Snow
2:35 AM 26.6 °F 15.7 °F 12.0 °F 54% 30.08 in 10.0 mi NNW 12.7 mph 17.3 mph N/A   Scattered Clouds
2:55 AM 26.6 °F 16.8 °F 13.5 °F 58% 30.08 in 10.0 mi NNW 10.4 mph 18.4 mph N/A   Overcast
3:15 AM 26.6 °F 17.5 °F 13.8 °F 59% 30.09 in 10.0 mi North 9.2 mph - N/A Snow Light Snow
3:35 AM 25.7 °F 17.1 °F 17.1 °F 70% 30.09 in 10.0 mi North 8.1 mph - N/A Snow Light Snow
3:55 AM 25.9 °F 17.4 °F 16.5 °F 68% 30.10 in 7.0 mi NNW 8.1 mph - N/A Snow Light Snow
4:15 AM 25.2 °F 14.4 °F 17.1 °F 71% 30.10 in 3.0 mi North 11.5 mph 19.6 mph N/A Snow Light Snow
4:35 AM 25.3 °F 16.0 °F 16.2 °F 68% 30.11 in 7.0 mi North 9.2 mph 16.1 mph N/A Snow Light Snow
4:55 AM 23.9 °F 13.5 °F 19.2 °F 82% 30.11 in 0.8 mi NNW 10.4 mph 16.1 mph N/A Snow Snow
5:15 AM 23.9 °F 15.0 °F 16.5 °F 73% 30.11 in 10.0 mi NNW 8.1 mph 16.1 mph N/A Snow Light Snow
5:35 AM 23.9 °F 15.0 °F 15.4 °F 70% 30.12 in 10.0 mi NNW 8.1 mph - N/A   Overcast
5:55 AM 23.9 °F 15.0 °F 14.4 °F 67% 30.13 in 10.0 mi NNW 8.1 mph 17.3 mph N/A   Overcast
6:15 AM 24.4 °F 14.2 °F 13.5 °F 63% 30.14 in 10.0 mi NNW 10.4 mph 16.1 mph N/A Snow Light Snow
6:35 AM 23.9 °F 14.2 °F 14.0 °F 66% 30.14 in 7.0 mi NNW 9.2 mph - N/A Snow Light Snow
6:55 AM 23.9 °F 12.3 °F 12.4 °F 62% 30.15 in 10.0 mi NW 12.7 mph - N/A Snow Light Snow
7:15 AM 23.7 °F 14.0 °F 11.3 °F 59% 30.16 in 10.0 mi NNW 9.2 mph 16.1 mph N/A   Overcast
7:35 AM 23.7 °F 14.7 °F 11.3 °F 59% 30.17 in 10.0 mi NNW 8.1 mph 16.1 mph N/A   Overcast
7:55 AM 23.7 °F 11.5 °F 10.6 °F 57% 30.18 in 10.0 mi NNW 13.8 mph 19.6 mph N/A   Overcast
8:15 AM 23.0 °F 14.7 °F 9.5 °F 56% 30.19 in 10.0 mi North 6.9 mph - N/A   Overcast
8:35 AM 23.7 °F 12.1 °F 8.8 °F 53% 30.21 in 10.0 mi North 12.7 mph 16.1 mph N/A   Overcast
8:55 AM 23.9 °F 15.0 °F 8.6 °F 52% 30.22 in 10.0 mi North 8.1 mph 16.1 mph N/A   Overcast
9:15 AM 24.3 °F 13.9 °F 8.6 °F 51% 30.23 in 10.0 mi NNW 10.4 mph - N/A   Scattered Clouds
9:35 AM 24.4 °F 13.5 °F 7.9 °F 49% 30.23 in 10.0 mi NW 11.5 mph 18.4 mph N/A   Scattered Clouds
9:55 AM 24.8 °F 16.9 °F 7.7 °F 48% 30.23 in 10.0 mi North 6.9 mph 16.1 mph N/A   Clear
10:15 AM 25.5 °F 16.2 °F 8.1 °F 48% 30.24 in 10.0 mi North 9.2 mph - N/A   Clear
10:35 AM 26.1 °F 15.6 °F 8.6 °F 48% 30.25 in 10.0 mi North 11.5 mph 20.7 mph N/A   Clear
10:55 AM 27.1 °F 18.9 °F 9.7 °F 48% 30.25 in 10.0 mi NW 8.1 mph - N/A   Clear
11:15 AM 26.8 °F 17.1 °F 8.2 °F 46% 30.25 in 10.0 mi NNW 10.4 mph 18.4 mph N/A   Clear
11:35 AM 28.2 °F 20.2 °F 9.0 °F 44% 30.25 in 10.0 mi NNW 8.1 mph - N/A   Clear
11:55 AM 28.6 °F 21.5 °F 10.0 °F 46% 30.25 in 10.0 mi WNW 6.9 mph - N/A   Clear
12:15 PM 29.3 °F 20.8 °F 10.9 °F 46% 30.25 in 10.0 mi NW 9.2 mph 17.3 mph N/A   Clear
12:35 PM 31.1 °F 23.7 °F 12.7 °F 47% 30.25 in 10.0 mi WNW 8.1 mph - N/A   Scattered Clouds
12:55 PM 31.6 °F 23.7 °F 10.9 °F 42% 30.25 in 10.0 mi North 9.2 mph 16.1 mph N/A   Clear
1:15 PM 32.0 °F 25.6 °F 10.8 °F 41% 30.24 in 10.0 mi NNE 6.9 mph - N/A   Clear
1:35 PM 32.5 °F 26.2 °F 9.9 °F 39% 30.24 in 10.0 mi WNW 6.9 mph - N/A   Clear
1:55 PM 33.8 °F 25.3 °F 9.5 °F 36% 30.24 in 10.0 mi NNW 11.5 mph 16.1 mph N/A   Clear
2:15 PM 35.1 °F 26.4 °F 11.5 °F 38% 30.23 in 10.0 mi West 12.7 mph 16.1 mph N/A   Clear
2:35 PM 35.8 °F 28.3 °F 7.9 °F 31% 30.23 in 10.0 mi WNW 10.4 mph 20.7 mph N/A   Clear
2:55 PM 35.6 °F 28.0 °F 7.3 °F 31% 30.23 in 10.0 mi NNW 10.4 mph 16.1 mph N/A   Clear
3:20 PM 37.0 °F 31.6 °F 7.7 °F 30% 30.23 in 10.0 mi NNW 6.9 mph - N/A   Clear
3:35 PM 37.4 °F 30.3 °F 7.5 °F 29% 30.23 in 10.0 mi North 10.4 mph - N/A   Clear
3:55 PM 38.5 °F 33.4 °F 7.7 °F 28% 30.22 in 10.0 mi NNW 6.9 mph 19.6 mph N/A   Clear
4:15 PM 38.7 °F 31.8 °F 8.8 °F 29% 30.22 in 10.0 mi NNW 10.4 mph - N/A   Clear
4:35 PM 39.9 °F 35.1 °F 9.5 °F 29% 30.22 in 10.0 mi NNW 6.9 mph - N/A   Clear
4:55 PM 39.6 °F 35.4 °F 8.8 °F 28% 30.22 in 10.0 mi North 5.8 mph - N/A   Clear
5:15 PM 40.1 °F 36.1 °F 9.1 °F 28% 30.21 in 10.0 mi NNW 5.8 mph - N/A   Clear
5:35 PM 41.0 °F 35.2 °F 8.2 °F 26% 30.22 in 10.0 mi WNW 9.2 mph 16.1 mph N/A   Clear
5:55 PM 41.5 °F 35.4 °F 8.4 °F 26% 30.21 in 10.0 mi WNW 10.4 mph - N/A   Clear
6:15 PM 41.0 °F 37.1 °F 6.1 °F 24% 30.21 in 10.0 mi West 5.8 mph - N/A   Clear
6:35 PM 41.0 °F 36.4 °F 5.9 °F 23% 30.20 in 10.0 mi NNW 6.9 mph - N/A   Clear
6:55 PM 40.6 °F 36.0 °F 6.3 °F 24% 30.21 in 10.0 mi NNW 6.9 mph - N/A   Clear
7:15 PM 40.5 °F 36.5 °F 7.2 °F 25% 30.21 in 10.0 mi NW 5.8 mph - N/A   Clear
7:35 PM 39.2 °F 35.9 °F 7.3 °F 27% 30.20 in 10.0 mi WNW 4.6 mph - N/A   Clear
7:55 PM 38.1 °F 33.7 °F 8.1 °F 29% 30.20 in 10.0 mi West 5.8 mph - N/A   Clear
8:15 PM 36.3 °F 32.5 °F 9.5 °F 33% 30.22 in 10.0 mi West 4.6 mph - N/A   Clear
8:35 PM 35.6 °F 31.7 °F 9.3 °F 34% 30.22 in 10.0 mi West 4.6 mph - N/A   Clear
8:55 PM 35.6 °F 32.8 °F 8.8 °F 33% 30.22 in 10.0 mi West 3.5 mph - N/A   Clear
9:15 PM 34.2 °F - 9.1 °F 35% 30.23 in 10.0 mi Calm Calm - N/A   Clear
9:35 PM 32.4 °F 29.1 °F 11.3 °F 42% 30.23 in 10.0 mi West 3.5 mph - N/A   Clear
9:55 PM 33.1 °F - 11.5 °F 41% 30.23 in 10.0 mi Calm Calm - N/A   Clear
10:15 PM 32.7 °F - 10.9 °F 40% 30.24 in 10.0 mi Calm Calm - N/A   Clear
10:35 PM 32.0 °F - 13.5 °F 46% 30.24 in 10.0 mi Calm Calm - N/A   Clear
10:55 PM 31.1 °F - 14.7 °F 51% 30.24 in 10.0 mi Calm Calm - N/A   Clear
11:15 PM 31.6 °F - 13.3 °F 47% 30.24 in 10.0 mi Calm Calm - N/A   Clear
11:35 PM 29.8 °F - 15.4 °F 55% 30.23 in 10.0 mi Calm Calm - N/A   Clear
11:55 PM 28.8 °F - 15.8 °F 58% 30.23 in 10.0 mi Calm Calm - N/A   Clear